Vorticity
nan nan nan nan nan nan nan nan nan nan nan nan nan nan nan nan nan nan nan nan nan nan nan nan nan nan nan nan nan nan nan nan nan nan nan nan nan nan nan nan nan nan nan
nan 11 8 6 5 4 4 5 4 4 5 4 4 4 5 6 6 9 7 5 5 5 5 6 6 6 5 4 4 4 3 3 3 3 3 3 4 5 4 3 5 7 nan
nan 7 7 8 5 5 6 6 5 6 6 4 4 4 5 6 5 8 7 4 4 5 6 6 6 6 6 4 3 3 2 2 2 4 5 6 3 4 6 8 5 4 nan
nan 6 8 9 6 6 6 5 7 6 5 5 5 5 4 6 5 6 6 4 4 5 6 6 6 6 5 3 3 3 5 6 4 5 7 9 7 3 3 12 17 9 nan
nan 6 10 9 7 6 6 6 7 5 5 5 6 6 7 6 5 6 6 4 4 5 6 6 6 6 4 3 3 5 8 9 6 4 7 9 9 7 4 4 12 12 nan
nan 8 10 7 6 6 8 8 5 4 4 6 5 5 13 9 6 6 6 4 5 5 5 5 5 5 4 4 4 8 9 6 4 5 5 6 8 7 4 4 3 2 nan
nan 6 8 8 6 7 8 6 5 5 5 5 4 6 9 8 8 6 3 3 4 5 5 5 5 5 4 4 4 9 8 4 4 5 5 5 6 3 4 4 5 5 nan
nan 10 9 5 5 6 6 6 6 6 6 5 4 6 5 5 5 5 5 5 5 5 5 4 4 4 5 5 5 7 8 5 5 5 5 6 7 4 4 6 6 6 nan
nan 9 8 6 6 5 4 6 5 5 6 5 5 6 4 4 5 5 4 4 5 6 5 4 4 4 5 6 6 7 11 8 5 6 5 6 5 4 4 5 6 6 nan
nan 6 6 7 6 5 7 6 5 5 6 5 5 7 6 5 6 5 5 4 5 5 5 5 4 4 5 6 7 7 9 7 6 6 6 5 4 4 5 5 6 6 nan
nan 4 3 5 6 7 7 7 7 6 6 5 5 5 5 4 6 7 6 6 6 6 6 4 4 4 5 5 6 6 5 6 6 6 7 6 5 5 5 5 5 5 nan
nan 6 4 5 7 7 7 7 6 6 6 7 7 5 5 7 7 7 7 8 7 6 6 5 5 5 5 6 5 6 5 7 7 7 7 8 6 4 5 5 5 5 nan
nan 7 9 6 7 6 6 6 7 7 7 8 7 6 6 6 6 6 7 8 8 7 6 6 7 6 5 6 6 6 6 6 8 8 8 9 6 5 5 6 5 5 nan
nan 6 6 7 6 6 6 8 7 7 7 7 8 6 6 6 7 7 7 7 6 8 7 7 6 6 6 6 6 6 7 6 6 8 9 9 8 6 5 6 6 5 nan
nan 7 7 6 6 7 6 6 7 7 7 8 8 7 6 7 7 7 7 7 7 7 8 8 7 7 7 7 7 7 6 7 6 7 9 11 8 8 7 6 6 5 nan
nan 7 8 7 7 7 7 6 6 7 7 7 7 8 6 6 7 7 7 7 7 8 7 8 7 7 8 8 7 8 8 8 8 6 7 11 11 8 8 6 5 6 nan
nan 8 8 7 8 7 6 6 7 7 8 7 8 9 7 6 6 7 7 8 8 8 8 7 7 7 8 8 8 8 9 8 8 8 8 8 12 13 11 7 6 6 nan
nan 8 7 8 8 7 6 7 7 8 8 7 8 9 9 7 7 6 7 7 9 8 8 8 7 8 9 7 8 8 8 9 8 9 7 7 8 11 14 12 8 9 nan
nan 8 9 9 8 8 8 9 9 7 6 8 8 8 9 9 7 7 6 8 9 8 7 8 7 9 7 7 8 8 8 8 9 9 8 8 8 7 11 14 13 11 nan
nan 10 11 11 10 9 8 9 9 8 9 9 8 8 8 9 9 7 7 9 8 7 6 8 9 7 7 9 10 9 8 8 9 8 9 9 9 8 8 9 11 14 nan
nan 12 13 12 10 9 8 9 9 9 8 9 10 9 8 8 8 8 8 9 9 9 8 6 9 8 8 9 8 11 10 11 9 8 10 9 8 10 8 8 7 9 nan
nan 9 8 9 10 9 9 9 10 10 9 9 10 10 10 10 9 8 8 8 7 8 10 10 7 7 9 9 5 7 8 10 12 11 10 10 9 10 10 9 8 8 nan
nan 8 8 8 9 9 9 9 8 8 9 9 9 9 9 10 12 12 9 9 8 9 8 9 10 7 7 7 9 4 9 9 7 10 10 10 11 8 9 11 10 8 nan
nan 8 8 9 8 8 10 11 10 9 7 7 8 8 7 9 11 12 13 12 10 9 9 8 8 9 10 8 9 9 7 11 7 7 9 10 10 8 9 10 10 10 nan
nan 8 7 7 7 9 10 11 10 9 8 8 7 8 10 9 9 9 10 12 13 11 10 10 8 9 6 10 8 10 10 8 10 8 6 8 9 10 10 10 9 10 nan
nan nan nan nan nan nan nan nan nan nan nan nan nan nan nan nan nan nan nan nan nan nan nan nan nan nan nan nan nan nan nan nan nan nan nan nan nan nan nan nan nan nan nan
CAPE
275 1246 2307 1938 1786 1685 1676 1454 1206 1287 1035 521 305 51 1 0 0 0 41 93 80 18 5 5 6 4 0 0 0 0 0 0 0 0 0 2 0 5 31 109 105 62 72
641 1591 2174 2061 1911 1798 1804 1640 1680 1569 1271 569 234 17 0 0 0 3 190 34 2 1 1 6 9 1 1 1 0 0 0 0 0 0 0 0 0 0 0 0 6 5 16
1118 1734 1783 2091 2188 2251 2212 1715 1471 1296 875 482 110 0 0 5 0 239 235 2 6 3 1 2 4 0 3 0 0 0 0 0 0 0 0 0 0 0 6 0 0 0 0
1514 1597 1523 2363 2426 2350 2004 1512 1408 931 342 165 30 0 7 3 5 334 207 13 5 1 0 2 0 0 1 0 0 0 0 0 0 0 0 0 0 13 123 214 201 73 0
1551 1632 1774 2413 2411 2209 1908 1811 1269 441 140 17 0 0 224 48 70 264 348 61 4 0 0 0 0 0 0 0 0 0 0 0 0 0 0 0 0 63 169 201 255 260 179
1415 1542 2073 2308 2300 2144 1855 1400 874 308 86 11 0 0 497 65 89 601 234 37 0 0 0 0 0 0 0 0 0 0 0 0 0 0 0 2 89 232 208 181 105 116 188
1140 1526 1995 2348 2192 1879 1676 1225 914 278 38 17 0 108 699 462 210 615 147 30 0 0 0 0 0 0 0 0 0 0 0 0 0 0 0 0 0 44 58 36 13 4 3
1011 1357 1549 2031 1936 1678 1444 1168 731 74 18 11 13 120 341 123 198 99 87 60 17 0 0 0 0 0 0 0 0 0 0 0 0 0 0 0 1 0 3 0 0 0 0
1150 1117 1329 1404 1488 1299 1139 920 627 311 39 32 52 188 425 291 152 143 132 91 49 0 0 0 30 17 0 0 0 0 0 0 0 0 0 0 10 3 3 0 0 0 0
1086 1120 1051 1076 1092 1030 804 625 470 324 90 72 54 51 31 37 82 116 89 83 60 31 34 50 47 36 0 0 0 0 0 0 0 0 0 0 68 1 0 0 0 0 1
961 835 788 806 785 671 627 528 399 189 73 60 42 29 31 7 15 25 22 34 71 101 83 97 68 15 0 0 0 0 0 0 0 0 0 6 136 36 0 0 0 0 0
454 420 373 535 443 411 494 449 219 88 32 14 8 3 0 0 1 17 12 23 74 128 139 107 62 22 0 0 0 0 0 0 0 0 1 66 163 80 0 0 0 0 0
279 387 432 322 193 243 327 141 65 41 8 0 0 0 0 0 0 1 0 1 10 61 50 91 34 0 0 0 0 0 0 0 0 0 8 83 199 120 36 0 0 0 0
131 219 275 175 87 59 61 82 41 32 0 0 0 0 0 0 0 0 0 0 0 0 9 13 5 0 0 0 0 0 0 0 0 0 0 23 222 145 60 0 0 0 0
100 73 138 88 30 23 25 24 23 20 0 0 0 0 0 0 0 0 0 0 0 0 0 0 0 0 0 0 0 0 0 0 0 0 0 0 70 220 78 27 0 0 0
110 77 53 71 41 11 7 0 1 0 0 0 0 0 0 0 0 0 0 0 0 0 0 0 0 0 0 0 0 0 0 0 0 0 0 0 3 118 228 60 15 2 2
100 91 81 64 47 15 7 0 0 0 0 1 0 0 0 0 0 0 0 0 0 0 0 0 0 0 0 0 0 0 0 0 0 0 0 0 0 10 127 96 40 16 4
72 133 100 243 56 14 0 0 0 0 0 0 0 0 0 0 0 0 0 0 0 0 0 0 0 0 0 0 0 0 0 0 0 0 0 0 0 0 12 167 180 39 9
42 72 107 92 164 7 0 0 0 0 0 0 0 0 0 0 0 0 0 0 0 0 0 0 0 0 0 0 0 0 0 0 0 0 0 0 0 0 0 0 44 52 60
0 0 5 69 80 38 0 0 0 0 0 0 0 0 0 0 0 0 0 0 0 0 0 0 0 0 0 0 0 0 0 0 0 0 0 0 0 0 0 0 0 0 1
0 0 0 0 0 22 29 24 0 19 0 0 0 0 0 0 0 0 0 0 0 0 0 0 0 0 0 0 0 0 0 0 0 0 0 0 0 0 0 0 0 0 0
0 0 0 0 0 0 0 0 0 0 0 0 0 0 0 0 0 0 0 0 0 0 0 0 0 0 0 0 0 0 0 0 0 0 0 0 0 0 0 0 0 0 0
0 0 0 0 0 0 0 0 0 0 0 0 0 0 0 0 0 0 0 0 0 0 0 0 0 0 0 0 0 0 0 0 0 0 0 0 0 0 0 0 0 0 0
0 0 0 0 0 0 0 0 0 0 0 0 0 0 0 0 0 0 0 1 1 0 0 0 0 0 0 0 1 0 0 0 0 0 0 0 0 0 0 0 0 0 0
0 0 0 0 0 0 0 0 0 0 0 0 0 0 0 0 0 0 0 0 0 0 0 0 1 1 0 0 0 0 0 0 0 0 0 0 0 0 0 0 0 0 0
0 0 0 0 0 0 0 0 0 0 0 0 0 0 0 0 0 0 0 0 0 0 1 1 0 1 1 0 0 0 0 0 0 0 0 0 0 0 0 0 0 0 0